YAOGAN-31 B

导读 | 豆包AI

YAOGAN-31 B(遥感三十一号B星)是中国研制发射的遥感系列卫星,于北京时间2018年4月10日发射入轨,是遥感三十一号组卫星的组成部分。作为中国遥感卫星体系的重要成员,该卫星主要用于开展空间环境探测与科学实验相关研究,服务于对地观测领域,进一步完善了中国遥感卫星网络布局,提升了空间探测能力。

基本信息
目录编号:
43276
目录名称:
YAOGAN-31 B
国际标识:
2018-034B
轨道中心:
EARTH
卫星名称:
YAOGAN-31 B
卫星全名:
--
卫星状态:
在轨 (已飞行2917 天)
发射日期:
2018-04-10 UTC
国别 :
中国 (CN)
星等 :
--
轨道信息
数据来源 国际轨道数据 AOE轨道数据
星历时间 2026-04-05T20:34:13+0800
4小时前
查看轨道信息
2026-04-03T15:00:00+0800
2天前
查看轨道信息
半长轴 7467.174km 7467.17km
偏心率 0.0269069 0.0268638
轨道倾角 63.394° 63.402°
近地点辐角 7.206° 7.409°
升交点赤经 278.247° 283.994°
平近点角 353.272° 341.657°
近地点 888.118km 888.436km
远地点 1289.956km 1289.63km
周期 107.027分钟 107.027分钟
每日圈数 13.454527 13.454537
详细信息
使用方式:
暂无
2D轨道图
3D轨道图
轨道高度分析图
轨道倾角分析图
轨道综合分析图
查看轨道综合分析图